Location: Audinghen
(50.8518°N, 1.6129°E)
Time: 02:33:14
(UTC+00:00)

SL-19 R/B - Pass Details

Date: 07 August 2020
Orbit: 795 x 1010 km, 99.4° (Epoch: 25 September)

Event Time Altitude Azimuth Distance (km) Brightness Sun altitude
Rises 01:31:11 0° 15° (NNE) 3,686 9.1 -19.9°
Reaches altitude 10° 01:33:43 10° 13° (NNE) 2,710 8.0 -19.7°
Maximum altitude 01:39:46 73° 291° (WNW) 971 4.4 -19.3°
Enters shadow 01:42:26 34° 214° (SW) 1,469 4.9 -19.1°
